This is the latest recevied weather packets stored in our database for station/object DM8MH-13. If no packets are shown the sender has not sent any weather packets the latest 10 day(s).
| Time | Temp. | Humidity | Pressure | Rain* | Wind** | Luminosity | Snow |
|---|---|---|---|---|---|---|---|
| 1777851072 | 17.78° C | 56% | 1012.3 hPa | 0 mm | - | 0 W/m² | - |
| 1777850472 | 17.78° C | 55% | 1012.2 hPa | 0 mm | - | 0 W/m² | - |
| 1777849871 | 17.78° C | 54% | 1012.2 hPa | 0 mm | - | 0 W/m² | - |
| 1777849271 | 18.33° C | 53% | 1012.1 hPa | 0 mm | - | 0 W/m² | - |
| 1777848671 | 18.33° C | 53% | 1012.1 hPa | 0 mm | - | 0 W/m² | - |
| 1777848070 | 17.78° C | 53% | 1011.8 hPa | 0 mm | - | 0 W/m² | - |
| 1777847471 | 17.78° C | 53% | 1011.7 hPa | 0 mm | - | 0 W/m² | - |
| 1777846871 | 17.78° C | 54% | 1011.6 hPa | 0 mm | - | 0 W/m² | - |
| 1777846271 | 18.33° C | 52% | 1011.6 hPa | 0 mm | - | 0 W/m² | - |
| 1777845671 | 18.33° C | 50% | 1011.1 hPa | 0 mm | - | 0 W/m² | - |
| 1777845070 | 18.33° C | 50% | 1011.3 hPa | 0 mm | - | 0 W/m² | - |
| 1777844470 | 18.89° C | 50% | 1011.3 hPa | 0 mm | - | 0 W/m² | - |
| 1777843871 | 18.89° C | 49% | 1011.3 hPa | 0 mm | - | 0 W/m² | - |
| 1777843270 | 18.89° C | 50% | 1011.3 hPa | 0 mm | - | 0 W/m² | - |
| 1777842670 | 18.89° C | 51% | 1011.1 hPa | 0 mm | - | 0 W/m² | - |
| 1777842070 | 18.89° C | 52% | 1011.1 hPa | 0 mm | - | 0 W/m² | - |
| 1777841471 | 18.89° C | 52% | 1011.1 hPa | 0 mm | - | 0 W/m² | - |
| 1777840871 | 18.89° C | 52% | 1011 hPa | 0 mm | - | 0 W/m² | - |
| 1777840272 | 19.44° C | 52% | 1010.9 hPa | 0 mm | - | 0 W/m² | - |
| 1777839671 | 19.44° C | 52% | 1010.9 hPa | 0 mm | - | 0 W/m² | - |
| 1777839070 | 19.44° C | 52% | 1011 hPa | 0 mm | - | 0 W/m² | - |
| 1777838471 | 19.44° C | 51% | 1010.8 hPa | 0 mm | - | 0 W/m² | - |
| 1777837871 | 19.44° C | 52% | 1010.8 hPa | 0 mm | - | 0 W/m² | - |
| 1777837271 | 20° C | 51% | 1010.7 hPa | 0 mm | - | 0 W/m² | - |
| 1777836671 | 20° C | 50% | 1010.6 hPa | 0 mm | - | 0 W/m² | - |
* Rain latest hour (hover to see other rain measurements)
** Current wind speed in m/s (hover to see current wind gust speed)